Location: Gwatt
(46.7204°N, 7.6223°E)
Time: 09:46:37
(UTC+00:00)

Explorer 7 - All Passes

Search period start: 24 January 2021 00:00
Search period end: 03 February 2021 00:00
Orbit: 484 x 678 km, 50.3° (Epoch: 23 January)

Date Brightness Start Highest point End Pass type
(mag) Time Alt. Az. Time Alt. Az. Time Alt. Az.
24 Jan - 02:52:31 10° SSE 02:54:21 13° SE 02:56:14 10° ESE visible
24 Jan - 04:30:22 10° SW 04:34:09 63° SSE 04:38:08 10° ENE visible
24 Jan - 06:10:52 10° W 06:14:44 54° N 06:18:51 10° ENE visible
24 Jan - 07:51:34 10° WNW 07:55:37 60° NNE 07:59:55 10° E daylight
24 Jan - 09:32:02 10° WNW 09:36:10 54° SSW 09:40:33 10° SE daylight
24 Jan - 11:14:04 10° WSW 11:16:04 13° SW 11:18:07 10° SSW daylight
25 Jan - 02:55:48 10° S 02:58:40 21° SE 03:01:36 10° E visible
25 Jan - 04:34:51 10° WSW 04:38:41 87° SSE 04:42:44 10° ENE visible
25 Jan - 06:15:34 10° W 06:19:25 50° N 06:23:30 10° ENE visible
25 Jan - 07:56:09 10° WNW 08:00:15 71° NNE 08:04:36 10° ESE daylight
25 Jan - 09:36:44 10° WNW 09:40:39 37° SW 09:44:47 10° SSE daylight
26 Jan - 02:59:40 10° SSW 03:03:02 31° SE 03:06:31 10° E visible
26 Jan - 04:39:27 10° WSW 04:43:17 72° NNW 04:47:19 10° ENE visible
26 Jan - 06:20:14 10° WNW 06:24:05 50° N 06:28:11 10° E visible
26 Jan - 08:00:44 10° WNW 08:04:50 90° NNE 08:09:13 10° ESE daylight
26 Jan - 09:41:33 10° W 09:45:04 25° SW 09:48:45 10° SSE daylight
27 Jan - 03:03:51 10° SW 03:07:28 47° SSE 03:11:14 10° ENE visible
27 Jan - 04:44:07 10° W 04:47:55 59° NNW 04:51:55 10° ENE visible
27 Jan - 06:24:52 10° WNW 06:28:46 53° N 06:32:53 10° E visible
27 Jan - 08:05:20 10° WNW 08:09:24 68° SSW 08:13:44 10° SE daylight
27 Jan - 09:46:38 10° W 09:49:25 17° SW 09:52:18 10° S daylight
28 Jan - 01:29:58 10° S 01:32:06 15° SE 01:34:16 10° E night (unlit)
28 Jan - 03:08:13 10° SW 03:11:58 69° SSE 03:15:52 10° ENE visible
28 Jan - 04:48:48 10° W 04:52:34 52° N 04:56:32 10° ENE visible
28 Jan - 06:29:29 10° WNW 06:33:25 61° NNE 06:37:35 10° E daylight
28 Jan - 08:09:57 10° WNW 08:13:54 48° SSW 08:18:05 10° SE daylight
28 Jan - 09:52:44 10° WSW 09:53:44 11° SW 09:54:43 10° SW daylight
29 Jan - 01:33:27 10° SSW 01:36:26 23° SE 01:39:28 10° E night (unlit)
29 Jan - 03:12:44 10° WSW 03:16:31 86° NNW 03:20:27 10° ENE visible
29 Jan - 04:53:29 10° WNW 04:57:15 49° N 05:01:11 10° ENE visible
29 Jan - 06:34:04 10° WNW 06:38:02 75° NNE 06:42:15 10° ESE daylight
29 Jan - 08:14:40 10° W 08:18:22 32° SW 08:22:14 10° SSE daylight
30 Jan - 01:37:24 10° SSW 01:40:50 34° SE 01:44:19 10° ENE night (unlit)
30 Jan - 03:17:22 10° W 03:21:08 67° NNW 03:25:01 10° ENE visible
30 Jan - 04:58:09 10° WNW 05:01:55 49° N 05:05:53 10° E visible
30 Jan - 06:38:38 10° WNW 06:42:37 84° SSW 06:46:50 10° ESE daylight
30 Jan - 08:19:33 10° W 08:22:46 22° SW 08:26:06 10° S daylight
31 Jan - 00:05:20 10° SE 00:05:34 10° SE 00:05:47 10° SE night (unlit)
31 Jan - 01:41:38 10° SW 01:45:17 52° SSE 01:49:01 10° ENE night (unlit)
31 Jan - 03:22:02 10° W 03:25:45 56° N 03:29:37 10° ENE visible
31 Jan - 05:02:47 10° WNW 05:06:35 54° N 05:10:35 10° E visible
31 Jan - 06:43:13 10° WNW 06:47:10 61° SSW 06:51:19 10° SE daylight
31 Jan - 08:24:49 10° WSW 08:27:06 14° SW 08:29:26 10° SSW daylight
01 Feb - 00:07:27 10° S 00:09:51 16° SE 00:12:16 10° E night (unlit)
01 Feb - 01:46:03 10° WSW 01:49:47 76° SSE 01:53:37 10° ENE night (unlit)
01 Feb - 03:26:43 10° W 03:30:24 50° N 03:34:15 10° ENE visible
01 Feb - 05:07:22 10° WNW 05:11:14 64° NNE 05:15:16 10° E visible
01 Feb - 06:47:52 10° WNW 06:51:38 42° SSW 06:55:37 10° SE daylight
02 Feb - 00:11:05 10° SSW 00:14:12 25° SE 00:17:21 10° E night (unlit)
02 Feb - 01:50:37 10° WSW 01:54:21 80° NNW 01:58:12 10° ENE night (unlit)
02 Feb - 03:31:24 10° WNW 03:35:05 48° N 03:38:55 10° ENE visible
02 Feb - 05:11:57 10° WNW 05:15:50 80° NNE 05:19:55 10° ESE visible
02 Feb - 06:52:38 10° W 06:56:05 28° SW 06:59:41 10° SSE daylight
